When you browse on this site, cookies collect data to enhance your experience and personalize the content and advertising you see.
Visit our Privacy Policy to learn more. By continuing to use the site, you agree to this use of cookies and data.

Hourly Weather Djaipur

Today, 9 August, Sunday

Time Temperature Precipitation Wind Pressure Humidity
00:00 +33°C° 0.6 mm 3 mps 716 mmHg 67%
01:00 +31°C° 0.6 mm 3 mps 716 mmHg 69%
02:00 +31°C° 0.6 mm 3 mps 716 mmHg 70%
03:00 +31°C° 0.1 mm 3 mps 716 mmHg 70%
04:00 +31°C° 0.1 mm 3 mps 715 mmHg 71%
05:00 +30°C° 0 mm 2 mps 715 mmHg 72%
06:00 +31°C° 0 mm 3 mps 716 mmHg 69%
07:00 +33°C° 0 mm 4 mps 716 mmHg 65%
08:00 +34°C° 0 mm 4 mps 716 mmHg 62%
09:00 +35°C° 0 mm 4 mps 716 mmHg 58%
10:00 +36°C° 0 mm 3 mps 716 mmHg 54%
11:00 +37°C° 0 mm 2 mps 717 mmHg 50%
12:00 +37°C° 0 mm 2 mps 716 mmHg 49%
13:00 +38°C° 0 mm 2 mps 715 mmHg 48%
14:00 +38°C° 0 mm 2 mps 715 mmHg 46%
15:00 +38°C° 0 mm 2 mps 714 mmHg 47%
16:00 +38°C° 0 mm 2 mps 714 mmHg 47%
17:00 +38°C° 0 mm 2 mps 714 mmHg 48%
18:00 +36°C° 0.2 mm 1 mps 714 mmHg 53%
19:00 +34°C° 0.2 mm 1 mps 714 mmHg 58%
20:00 +33°C° 0.2 mm 1 mps 714 mmHg 63%
21:00 +33°C° 0.1 mm 1 mps 715 mmHg 64%
22:00 +33°C° 0.1 mm 1 mps 715 mmHg 65%
23:00 +33°C° 0.1 mm 1 mps 715 mmHg 66%

Tomorrow, 10 August, Monday

Time Temperature Precipitation Wind Pressure Humidity
00:00 +32°C° 0 mm 2 mps 715 mmHg 67%
01:00 +32°C° 0 mm 2 mps 715 mmHg 68%
02:00 +32°C° 0 mm 2 mps 715 mmHg 69%
03:00 +31°C° 0.8 mm 3 mps 715 mmHg 71%
04:00 +32°C° 0.8 mm 4 mps 714 mmHg 74%
05:00 +30°C° 0.8 mm 5 mps 714 mmHg 77%
06:00 +32°C° 0.3 mm 5 mps 715 mmHg 75%
07:00 +32°C° 0.3 mm 5 mps 715 mmHg 73%
08:00 +33°C° 0.3 mm 5 mps 716 mmHg 71%
09:00 +35°C° 0.3 mm 4 mps 716 mmHg 64%
10:00 +36°C° 0.3 mm 3 mps 716 mmHg 57%
11:00 +38°C° 0.3 mm 2 mps 716 mmHg 49%
12:00 +38°C° 0.5 mm 2 mps 715 mmHg 50%
13:00 +38°C° 0.5 mm 2 mps 715 mmHg 50%
14:00 +38°C° 0.5 mm 2 mps 715 mmHg 50%
15:00 +37°C° 0.3 mm 3 mps 714 mmHg 53%
16:00 +36°C° 0.3 mm 3 mps 714 mmHg 56%
17:00 +35°C° 0.3 mm 3 mps 714 mmHg 60%
18:00 +35°C° 0.3 mm 3 mps 714 mmHg 62%
19:00 +34°C° 0.3 mm 3 mps 715 mmHg 65%
20:00 +34°C° 0.3 mm 2 mps 715 mmHg 68%
21:00 +32°C° 0.2 mm 2 mps 715 mmHg 70%
22:00 +32°C° 0.2 mm 2 mps 715 mmHg 72%
23:00 +32°C° 0.2 mm 2 mps 715 mmHg 74%

Day after tomorrow, 11 August, Tuesday

Time Temperature Precipitation Wind Pressure Humidity
00:00 +31°C° 2.1 mm 2 mps 715 mmHg 75%
01:00 +31°C° 2.1 mm 2 mps 715 mmHg 76%
02:00 +31°C° 2.1 mm 2 mps 715 mmHg 78%
03:00 +30°C° 0.6 mm 3 mps 715 mmHg 78%
04:00 +30°C° 0.6 mm 3 mps 715 mmHg 79%
05:00 +30°C° 0.6 mm 4 mps 715 mmHg 80%
06:00 +30°C° 0 mm 4 mps 715 mmHg 78%
07:00 +30°C° 0 mm 5 mps 716 mmHg 77%
08:00 +32°C° 0 mm 6 mps 717 mmHg 75%
09:00 +32°C° 0 mm 6 mps 717 mmHg 73%
10:00 +32°C° 0 mm 6 mps 717 mmHg 71%
11:00 +33°C° 0 mm 6 mps 717 mmHg 69%
12:00 +33°C° 0 mm 6 mps 716 mmHg 68%
13:00 +33°C° 0 mm 6 mps 716 mmHg 67%
14:00 +33°C° 0 mm 6 mps 715 mmHg 66%
15:00 +34°C° 0.1 mm 6 mps 715 mmHg 65%
16:00 +34°C° 0.1 mm 6 mps 715 mmHg 65%
17:00 +34°C° 0.1 mm 6 mps 715 mmHg 64%
18:00 +33°C° 0 mm 5 mps 716 mmHg 65%
19:00 +32°C° 0 mm 5 mps 716 mmHg 66%
20:00 +32°C° 0 mm 5 mps 717 mmHg 67%
21:00 +30°C° 0 mm 5 mps 717 mmHg 71%
22:00 +30°C° 0 mm 5 mps 717 mmHg 75%
23:00 +29°C° 0 mm 5 mps 717 mmHg 78%

12 August, Wednesday

Time Temperature Precipitation Wind Pressure Humidity
00:00 +29°C° 0 mm 5 mps 716 mmHg 77%
01:00 +29°C° 0 mm 5 mps 716 mmHg 76%
02:00 +29°C° 0 mm 5 mps 716 mmHg 75%
03:00 +29°C° 0.1 mm 5 mps 716 mmHg 77%
04:00 +29°C° 0.1 mm 5 mps 716 mmHg 79%
05:00 +28°C° 0.1 mm 5 mps 716 mmHg 81%
06:00 +29°C° 0 mm 5 mps 716 mmHg 80%
07:00 +29°C° 0 mm 6 mps 717 mmHg 79%
08:00 +30°C° 0 mm 6 mps 717 mmHg 78%
09:00 +32°C° 0.4 mm 6 mps 717 mmHg 74%
10:00 +32°C° 0.4 mm 6 mps 717 mmHg 69%
11:00 +33°C° 0.4 mm 6 mps 717 mmHg 65%
12:00 +34°C° 0.4 mm 6 mps 717 mmHg 63%
13:00 +34°C° 0.4 mm 5 mps 717 mmHg 62%
14:00 +35°C° 0.4 mm 5 mps 716 mmHg 60%
15:00 +34°C° 1.5 mm 5 mps 716 mmHg 62%
16:00 +34°C° 1.5 mm 4 mps 716 mmHg 64%
17:00 +33°C° 1.5 mm 3 mps 716 mmHg 66%
18:00 +33°C° 1.2 mm 3 mps 716 mmHg 69%
19:00 +31°C° 1.2 mm 3 mps 716 mmHg 71%
20:00 +31°C° 1.2 mm 3 mps 717 mmHg 73%
21:00 +31°C° 0.1 mm 3 mps 717 mmHg 74%
22:00 +30°C° 0.1 mm 4 mps 717 mmHg 75%
23:00 +30°C° 0.1 mm 4 mps 717 mmHg 76%

13 August, Thursday

Time Temperature Precipitation Wind Pressure Humidity
00:00 +30°C° 0 mm 5 mps 717 mmHg 77%
01:00 +29°C° 0 mm 5 mps 716 mmHg 78%
02:00 +29°C° 0 mm 6 mps 716 mmHg 79%
03:00 +29°C° 0 mm 5 mps 715 mmHg 81%
04:00 +29°C° 0 mm 5 mps 715 mmHg 82%
05:00 +28°C° 0 mm 5 mps 715 mmHg 83%
06:00 +28°C° 0.1 mm 5 mps 715 mmHg 83%
07:00 +28°C° 0.1 mm 4 mps 716 mmHg 82%
08:00 +28°C° 0.1 mm 4 mps 716 mmHg 82%
09:00 +29°C° 0 mm 4 mps 716 mmHg 79%
10:00 +29°C° 0 mm 5 mps 716 mmHg 76%
11:00 +30°C° 0 mm 5 mps 716 mmHg 74%
12:00 +30°C° 0 mm 4 mps 716 mmHg 72%
13:00 +30°C° 0 mm 4 mps 716 mmHg 71%
14:00 +31°C° 0 mm 3 mps 715 mmHg 69%
15:00 +31°C° 0 mm 3 mps 715 mmHg 70%
16:00 +31°C° 0 mm 3 mps 714 mmHg 71%
17:00 +31°C° 0 mm 2 mps 714 mmHg 72%
18:00 +30°C° 0 mm 2 mps 714 mmHg 74%
19:00 +30°C° 0 mm 3 mps 714 mmHg 76%
20:00 +29°C° 0 mm 3 mps 715 mmHg 79%
21:00 +29°C° 0.2 mm 3 mps 715 mmHg 78%
22:00 +29°C° 0.2 mm 4 mps 715 mmHg 78%
23:00 +29°C° 0.2 mm 5 mps 715 mmHg 78%

14 August, Friday

Time Temperature Precipitation Wind Pressure Humidity
00:00 +29°C° 0.8 mm 5 mps 715 mmHg 78%
01:00 +29°C° 0.8 mm 5 mps 714 mmHg 79%
02:00 +29°C° 0.8 mm 5 mps 714 mmHg 80%
03:00 +29°C° 1.1 mm 5 mps 714 mmHg 80%
04:00 +28°C° 1.1 mm 5 mps 714 mmHg 81%
05:00 +28°C° 1.1 mm 5 mps 714 mmHg 82%
06:00 +28°C° 1.4 mm 5 mps 714 mmHg 82%
07:00 +28°C° 1.4 mm 5 mps 714 mmHg 82%
08:00 +29°C° 1.4 mm 5 mps 715 mmHg 82%
09:00 +29°C° 2 mm 5 mps 715 mmHg 79%
10:00 +30°C° 2 mm 5 mps 715 mmHg 75%
11:00 +32°C° 2 mm 5 mps 715 mmHg 72%
12:00 +30°C° 3.8 mm 4 mps 714 mmHg 77%
13:00 +30°C° 3.8 mm 3 mps 714 mmHg 82%
14:00 +29°C° 3.8 mm 3 mps 713 mmHg 87%
15:00 +29°C° 3.8 mm 3 mps 713 mmHg 87%
16:00 +29°C° 3.8 mm 3 mps 712 mmHg 87%
17:00 +28°C° 3.8 mm 3 mps 712 mmHg 87%
18:00 +28°C° 1.4 mm 4 mps 712 mmHg 88%
19:00 +28°C° 1.4 mm 4 mps 713 mmHg 88%
20:00 +28°C° 1.4 mm 4 mps 713 mmHg 88%
21:00 +28°C° 0.5 mm 3 mps 713 mmHg 88%
22:00 +28°C° 0.5 mm 3 mps 714 mmHg 88%
23:00 +28°C° 0.5 mm 3 mps 714 mmHg 87%
Show more